Radiation Dose at Monitoring Post of Fukushima Daini Nuclear Power Station
Date,Time,MP-1(microSv/h),MP-2(microSv/h),MP-3(microSv/h),MP-4(microSv/h),MP-5(microSv/h),MP-6(microSv/h),MP-7(microSv/h),Wind Direction,Wind Velocity(m/s),Rain
2013/01/26,00:00,1.1,0.7,1.1,1.0,0.9,0.5,0.4,west,5.0,No
2013/01/26,00:10,1.1,0.7,1.1,1.0,0.9,0.5,0.4,west-southwest,5.9,No
2013/01/26,00:20,1.1,0.7,1.1,1.0,0.9,0.5,0.4,west-southwest,6.8,No
2013/01/26,00:30,1.1,0.7,1.1,1.0,0.9,0.5,0.4,southwest,6.1,No
2013/01/26,00:40,1.1,0.7,1.1,1.0,0.9,0.5,0.4,west-southwest,6.6,No
2013/01/26,00:50,1.1,0.7,1.1,1.0,0.9,0.5,0.4,west-southwest,5.7,No
2013/01/26,01:00,1.1,0.7,1.1,1.0,0.9,0.5,0.4,west-southwest,6.4,No
2013/01/26,01:10,1.1,0.7,1.1,1.0,0.9,0.5,0.4,west-southwest,7.6,No
2013/01/26,01:20,1.1,0.7,1.1,1.0,0.9,0.5,0.4,west-southwest,6.0,No
2013/01/26,01:30,1.1,0.7,1.1,1.0,0.9,0.5,0.4,west-southwest,5.7,No
2013/01/26,01:40,1.1,0.7,1.1,1.0,0.9,0.5,0.4,west-southwest,5.7,No
2013/01/26,01:50,1.1,0.7,1.1,1.0,0.9,0.5,0.4,west-southwest,5.8,No
2013/01/26,02:00,1.1,0.7,1.1,1.0,0.9,0.5,0.4,west-southwest,6.5,No
2013/01/26,02:10,1.1,0.7,1.1,1.0,0.9,0.5,0.4,west-southwest,6.0,No
2013/01/26,02:20,1.1,0.7,1.1,1.0,0.9,0.5,0.4,west-northwest,4.6,No
2013/01/26,02:30,1.1,0.7,1.1,1.0,0.9,0.5,0.4,northwest,5.3,No
2013/01/26,02:40,1.1,0.7,1.1,1.0,0.9,0.5,0.4,northwest,5.9,No
2013/01/26,02:50,1.1,0.7,1.1,1.0,0.9,0.5,0.4,northwest,5.8,No
2013/01/26,03:00,1.1,0.7,1.1,1.0,0.9,0.5,0.4,northwest,5.8,No
2013/01/26,03:10,1.1,0.7,1.1,1.0,0.9,0.5,0.4,west-northwest,5.3,No
2013/01/26,03:20,1.1,0.7,1.1,1.0,0.9,0.5,0.4,west-northwest,5.3,No
2013/01/26,03:30,1.1,0.7,1.1,1.0,0.9,0.5,0.4,west-northwest,4.1,No
2013/01/26,03:40,1.1,0.7,1.1,1.0,0.9,0.5,0.4,west,4.0,No
2013/01/26,03:50,1.1,0.7,1.1,1.0,0.9,0.5,0.4,west,3.7,No
2013/01/26,04:00,1.1,0.7,1.1,1.0,0.9,0.5,0.4,west,3.0,No
2013/01/26,04:10,1.1,0.7,1.1,1.0,0.9,0.5,0.4,west-northwest,2.5,No
2013/01/26,04:20,1.1,0.7,1.1,1.0,0.9,0.5,0.4,north-northwest,2.6,No
2013/01/26,04:30,1.1,0.7,1.1,1.0,0.9,0.5,0.4,north-northwest,2.7,No
2013/01/26,04:40,1.1,0.7,1.1,1.0,0.9,0.5,0.4,northwest,3.6,No
2013/01/26,04:50,1.1,0.7,1.1,1.0,0.9,0.5,0.4,west-northwest,3.2,No
2013/01/26,05:00,1.1,0.7,1.1,1.0,0.9,0.5,0.4,west-southwest,1.3,No
2013/01/26,05:10,1.1,0.7,1.1,1.0,0.9,0.5,0.4,west,0.6,No
2013/01/26,05:20,1.1,0.7,1.1,1.0,0.9,0.5,0.4,-,-,No
2013/01/26,05:30,1.1,0.7,1.1,1.0,0.9,0.5,0.4,south-southwest,0.8,No
2013/01/26,05:40,1.1,0.7,1.1,1.0,0.9,0.5,0.4,south-southeast,1.4,No
2013/01/26,05:50,1.1,0.7,1.1,1.0,0.9,0.5,0.4,south-southeast,0.6,No
2013/01/26,06:00,1.1,0.7,1.1,1.0,0.9,0.5,0.4,west-southwest,0.9,No
2013/01/26,06:10,1.1,0.7,1.1,1.0,0.9,0.5,0.4,west,1.4,No
2013/01/26,06:20,1.1,0.7,1.1,1.0,0.9,0.5,0.4,west-northwest,2.1,No
2013/01/26,06:30,1.1,0.7,1.1,1.0,0.9,0.5,0.4,northwest,5.5,No
2013/01/26,06:40,1.1,0.7,1.1,1.0,0.9,0.5,0.4,west-northwest,7.3,No
2013/01/26,06:50,1.1,0.7,1.1,1.0,0.9,0.5,0.4,west-northwest,9.8,No
2013/01/26,07:00,1.1,0.7,1.1,1.0,0.9,0.5,0.4,northwest,7.7,No
2013/01/26,07:10,1.1,0.7,1.1,1.0,0.9,0.5,0.4,northwest,6.9,No
2013/01/26,07:20,1.1,0.7,1.1,1.0,0.9,0.5,0.4,west-northwest,6.1,No
2013/01/26,07:30,1.1,0.7,1.1,1.0,0.9,0.5,0.4,west-northwest,7.8,No
2013/01/26,07:40,1.1,0.7,1.1,1.0,0.9,0.4,0.4,west-northwest,8.9,Yes
2013/01/26,07:50,1.1,0.7,1.1,1.0,0.9,0.5,0.4,west,6.2,No
2013/01/26,08:00,1.1,0.7,1.1,1.0,0.9,0.5,0.4,west-southwest,7.5,Yes
2013/01/26,08:10,1.1,0.7,1.1,1.0,0.9,0.5,0.4,west-southwest,6.9,Yes
2013/01/26,08:20,1.1,0.7,1.1,1.0,0.9,0.5,0.4,west-southwest,7.8,No
2013/01/26,08:30,1.1,0.7,1.1,1.0,0.9,0.5,0.4,west-southwest,5.9,No
2013/01/26,08:40,1.1,0.7,1.1,1.0,0.9,0.5,0.4,west,7.5,No
2013/01/26,08:50,1.1,0.7,1.1,1.0,0.9,0.5,0.4,west,8.9,No
2013/01/26,09:00,1.1,0.7,1.1,1.0,0.9,0.5,0.4,west-northwest,9.8,No
2013/01/26,09:10,1.1,0.7,1.1,1.0,0.9,0.5,0.4,west,13.1,No
2013/01/26,09:20,1.1,0.7,1.1,1.0,0.9,0.5,0.4,west,12.2,No
2013/01/26,09:30,1.1,0.7,1.1,1.0,0.9,0.5,0.4,west-northwest,12.0,No
2013/01/26,09:40,1.1,0.7,1.1,1.0,0.9,0.5,0.4,west,11.4,No
2013/01/26,09:50,1.1,0.7,1.1,1.0,0.9,0.5,0.4,west-northwest,9.2,No
2013/01/26,10:00,1.1,0.7,1.1,1.0,0.9,0.5,0.4,west,11.5,No
2013/01/26,10:10,1.1,0.7,1.1,1.0,0.9,0.5,0.4,west-northwest,11.7,No
2013/01/26,10:20,1.1,0.7,1.1,1.0,0.9,0.5,0.4,west-northwest,9.8,No
2013/01/26,10:30,1.1,0.7,1.1,1.0,0.9,0.5,0.4,west-northwest,10.0,No
2013/01/26,10:40,1.1,0.7,1.1,1.0,0.9,0.5,0.4,west,8.1,No
2013/01/26,10:50,1.1,0.7,1.1,1.0,0.9,0.5,0.4,west-northwest,7.5,No
2013/01/26,11:00,1.1,0.7,1.1,1.0,0.9,0.5,0.4,west,8.1,No
2013/01/26,11:10,1.1,0.7,1.1,1.0,0.9,0.5,0.4,west-northwest,8.4,No
2013/01/26,11:20,1.1,0.7,1.1,1.0,0.9,0.5,0.4,west-northwest,8.4,No
2013/01/26,11:30,1.1,0.7,1.1,1.0,0.9,0.5,0.4,west,6.9,No
2013/01/26,11:40,1.1,0.7,1.1,1.0,0.9,0.5,0.4,west,8.2,No
2013/01/26,11:50,1.1,0.7,1.1,1.0,0.9,0.5,0.4,west-northwest,13.1,No
2013/01/26,12:00,1.1,0.7,1.1,1.0,0.9,0.5,0.4,west-northwest,9.8,No
2013/01/26,12:10,1.1,0.7,1.1,1.0,0.9,0.5,0.4,west,8.3,No
2013/01/26,12:20,1.1,0.7,1.1,1.0,0.9,0.5,0.4,west,7.5,No
2013/01/26,12:30,1.1,0.7,1.1,1.0,0.9,0.5,0.4,west-southwest,6.1,No
2013/01/26,12:40,1.1,0.7,1.1,1.0,0.9,0.5,0.4,west,6.1,No
2013/01/26,12:50,1.1,0.7,1.1,1.0,0.9,0.5,0.4,west-northwest,5.3,No
2013/01/26,13:00,1.1,0.7,1.1,1.0,0.9,0.5,0.4,west,4.3,No
2013/01/26,13:10,1.1,0.7,1.1,1.0,0.9,0.5,0.4,west,4.7,No
2013/01/26,13:20,1.1,0.7,1.1,1.0,0.9,0.5,0.4,west-northwest,4.6,No
2013/01/26,13:30,1.1,0.7,1.1,1.0,0.9,0.5,0.4,west-northwest,7.9,No
2013/01/26,13:40,1.1,0.7,1.1,1.0,0.9,0.5,0.4,west,9.0,No
2013/01/26,13:50,1.1,0.7,1.1,1.0,0.9,0.5,0.4,west,9.5,No
2013/01/26,14:00,1.1,0.7,1.1,1.0,0.9,0.5,0.4,west-northwest,7.1,No
2013/01/26,14:10,1.1,0.7,1.1,1.0,0.9,0.5,0.4,west,7.7,No
2013/01/26,14:20,1.1,0.7,1.1,1.0,0.9,0.5,0.4,west-northwest,8.5,No
2013/01/26,14:30,1.1,0.7,1.1,1.0,0.9,0.5,0.4,west,8.5,No
2013/01/26,14:40,1.1,0.7,1.1,1.0,0.9,0.5,0.4,west,7.4,No
2013/01/26,14:50,1.1,0.7,1.1,1.0,0.9,0.5,0.4,west-northwest,8.7,No
2013/01/26,15:00,1.1,0.7,1.1,1.0,0.9,0.5,0.4,west,12.0,No
2013/01/26,15:10,1.1,0.7,1.1,1.0,0.9,0.5,0.4,west-northwest,10.4,No
2013/01/26,15:20,1.1,0.7,1.1,1.0,0.9,0.5,0.4,west,8.8,No
2013/01/26,15:30,1.1,0.7,1.1,1.0,0.9,0.5,0.4,west,5.7,No
2013/01/26,15:40,1.1,0.7,1.1,1.0,0.9,0.5,0.4,southwest,6.2,No
2013/01/26,15:50,1.1,0.7,1.1,1.0,0.9,0.5,0.4,southwest,8.9,No
2013/01/26,16:00,1.1,0.7,1.1,1.0,0.9,0.5,0.4,west-southwest,7.4,No
2013/01/26,16:10,1.1,0.7,1.1,1.0,0.9,0.5,0.4,west-southwest,7.9,No
2013/01/26,16:20,1.1,0.7,1.1,1.0,0.9,0.5,0.4,west-southwest,9.2,No
2013/01/26,16:30,1.1,0.7,1.1,1.0,0.9,0.5,0.4,west-southwest,8.3,No
2013/01/26,16:40,1.1,0.7,1.1,1.0,0.9,0.5,0.4,west,7.3,No
2013/01/26,16:50,1.1,0.7,1.1,1.0,0.9,0.5,0.4,west-southwest,9.3,No
2013/01/26,17:00,1.1,0.7,1.1,1.0,0.9,0.5,0.4,west,6.7,No
2013/01/26,17:10,1.1,0.7,1.1,1.0,0.9,0.5,0.4,west,5.9,No
2013/01/26,17:20,1.1,0.7,1.1,1.0,0.9,0.5,0.4,west-northwest,4.9,No
2013/01/26,17:30,1.1,0.7,1.1,1.0,0.9,0.5,0.4,west-northwest,6.2,No
2013/01/26,17:40,1.1,0.7,1.1,1.0,0.9,0.5,0.4,northwest,6.4,Yes
2013/01/26,17:50,1.1,0.7,1.1,1.0,0.9,0.5,0.4,northwest,6.1,Yes
2013/01/26,18:00,1.1,0.7,1.1,1.0,0.9,0.5,0.4,west-northwest,4.7,Yes
2013/01/26,18:10,1.1,0.7,1.1,1.0,0.9,0.5,0.4,west,5.5,Yes
2013/01/26,18:20,1.1,0.7,1.1,1.0,0.9,0.5,0.4,west-southwest,4.2,Yes
2013/01/26,18:30,1.1,0.7,1.1,1.0,0.9,0.5,0.4,west,7.9,Yes
2013/01/26,18:40,1.1,0.7,1.1,1.0,0.9,0.5,0.4,west,10.3,Yes
2013/01/26,18:50,1.1,0.7,1.1,1.0,0.9,0.5,0.4,west,9.2,No
2013/01/26,19:00,1.1,0.7,1.1,1.0,0.9,0.5,0.4,west,10.1,No
2013/01/26,19:10,1.1,0.7,1.1,1.0,0.9,0.5,0.4,west-northwest,11.7,Yes
2013/01/26,19:20,1.1,0.7,1.1,1.0,0.9,0.5,0.4,west-northwest,10.4,Yes
2013/01/26,19:30,1.1,0.7,1.1,1.0,0.9,0.5,0.4,west,11.5,Yes
2013/01/26,19:40,1.1,0.7,1.1,1.0,0.9,0.5,0.4,west,10.0,No
2013/01/26,19:50,1.1,0.7,1.1,1.0,0.9,0.5,0.4,west,9.3,No
2013/01/26,20:00,1.1,0.7,1.1,1.0,0.9,0.5,0.4,west-northwest,8.2,No
2013/01/26,20:10,1.1,0.7,1.1,1.0,0.9,0.5,0.4,west,9.8,No
2013/01/26,20:20,1.1,0.7,1.1,1.0,0.9,0.5,0.4,west,8.3,No
2013/01/26,20:30,1.1,0.7,1.1,1.0,0.9,0.5,0.4,west,4.8,No
2013/01/26,20:40,1.1,0.7,1.1,1.0,0.9,0.5,0.4,west-northwest,8.8,No
2013/01/26,20:50,1.1,0.7,1.1,1.0,0.9,0.5,0.4,west,8.9,No
2013/01/26,21:00,1.1,0.7,1.1,1.0,0.9,0.5,0.4,west-southwest,11.2,No
2013/01/26,21:10,1.1,0.7,1.1,1.0,0.9,0.5,0.4,west,11.2,No
2013/01/26,21:20,1.1,0.7,1.1,1.0,0.9,0.5,0.4,west,10.1,No
2013/01/26,21:30,1.1,0.7,1.1,1.0,0.9,0.5,0.4,west-northwest,9.8,No
2013/01/26,21:40,1.1,0.7,1.1,1.0,0.9,0.5,0.4,west,11.2,No
2013/01/26,21:50,1.1,0.7,1.1,1.0,0.9,0.5,0.4,west,8.8,No
2013/01/26,22:00,1.1,0.7,1.1,1.0,0.9,0.5,0.4,west,12.3,No
2013/01/26,22:10,1.1,0.7,1.1,1.0,0.9,0.5,0.4,west,10.1,No
2013/01/26,22:20,1.1,0.7,1.1,1.0,0.9,0.5,0.4,west,11.5,No
2013/01/26,22:30,1.1,0.7,1.1,1.0,0.9,0.5,0.4,west,15.6,No
2013/01/26,22:40,1.1,0.7,1.1,1.0,0.9,0.5,0.4,west-northwest,15.1,No
2013/01/26,22:50,1.1,0.7,1.1,1.0,0.9,0.5,0.4,west,15.1,No
2013/01/26,23:00,1.1,0.7,1.1,1.0,0.9,0.5,0.4,-,-,No
2013/01/26,23:10,1.1,0.7,1.1,1.0,0.9,0.5,0.4,west-southwest,11.7,No
2013/01/26,23:20,1.1,0.7,1.1,1.0,0.9,0.5,0.4,-,-,No
2013/01/26,23:30,1.1,0.7,1.1,1.0,0.9,0.5,0.4,-,-,Yes
2013/01/26,23:40,1.1,0.7,1.1,1.0,0.9,0.5,0.4,-,-,No
2013/01/26,23:50,1.1,0.7,1.1,1.0,0.9,0.5,0.4,-,-,No
